Location: Bethera
(33.2010°N, 79.7880°W)
Time: 07:22:32
(UTC-04:00)

Amateur Radio Satellites - All Passes

Search period start: 22 July 2014 06:52
Search period end: 23 July 2014 06:52
Location: Bethera, 33.2010°N, 79.7880°W

Satellite Date Start Highest point End Downlink Frequencies (MHz)
Time Altitude Azimuth
Hamsat 22 Jul 07:21:12 07:25:29 89° 282° (WNW) 07:29:48 145.90 MHz
KITSAT 1 22 Jul 07:21:50 07:29:21 44° 109° (ESE) 07:36:54 435.175 FM
Lituanica SAT-1 22 Jul 07:56:06 07:57:46 18° 38° (NE) 07:59:27 437.275 MHz beacon
STRAND 1 22 Jul 07:58:43 08:03:30 39° 261° (W) 08:08:19 ?
AO-7 22 Jul 08:03:15 08:07:16 15° 306° (NW) 08:11:17 29.400 - 29.500 MHz
JAS-2 22 Jul 08:13:32 08:19:30 50° 289° (WNW) 08:24:49 435.800 - 435.900 CW/SSB, 435.910 FM
SO-67 22 Jul 08:16:00 08:19:25 56° 100° (E) 08:22:50 435.3500 MHz FM
MaSat-1 22 Jul 08:35:36 08:40:15 30° 60° (ENE) 08:44:43 437.345 MHz
PANSAT 22 Jul 08:43:59 08:47:15 26° 166° (SSE) 08:50:31 not established
KITSAT 1 22 Jul 09:17:25 09:24:46 37° 306° (NW) 09:32:09 435.175 FM
HO-68 22 Jul 09:21:36 09:27:10 24° 96° (E) 09:32:40 435.675 MHz FM
ISS 22 Jul 09:28:34 09:31:38 32° 38° (NE) 09:34:41 145.800 FM
Lituanica SAT-1 22 Jul 09:29:33 09:30:39 13° 231° (SW) 09:31:45 437.275 MHz beacon
Saudisat 1A 22 Jul 09:56:02 10:00:26 76° 299° (WNW) 10:04:53 436.775 MHz
Oscar 11 22 Jul 09:57:31 09:59:15 12° 93° (E) 10:00:59 145.825 FM, Beacon 2401.500 USB
MaSat-1 22 Jul 10:12:59 10:17:32 30° 256° (WSW) 10:21:52 437.345 MHz
PANSAT 22 Jul 10:23:29 10:27:06 40° 179° (S) 10:30:44 not established
ISS 22 Jul 11:05:49 11:08:10 18° 232° (SW) 11:10:32 145.800 FM
HO-68 22 Jul 11:08:11 11:15:04 53° 290° (WNW) 11:21:55 435.675 MHz FM
Sapphire 22 Jul 11:24:50 11:28:44 20° 53° (NE) 11:32:37 437.095 MHz 1200 baud AX-25 AFSK
Oscar 11 22 Jul 11:31:29 11:35:36 44° 286° (WNW) 11:39:43 145.825 FM, Beacon 2401.500 USB
FUNcube-1 22 Jul 11:31:55 11:36:01 58° 101° (E) 11:40:08 145.950 - 145.970 MHz USB
PCSat 22 Jul 11:58:11 12:03:18 41° 60° (ENE) 12:08:23 145.825 MHz
PANSAT 22 Jul 12:03:35 12:07:00 30° 191° (SSW) 12:10:24 not established
Oscar 19 22 Jul 12:51:31 12:53:29 12° 64° (ENE) 12:55:27 437.125 CW, 437.150 USB
RS-15 22 Jul 12:52:28 12:56:17 12° 98° (E) 13:00:03 29.354 - 29.394 USB, Beacon 29.352 USB
Sapphire 22 Jul 13:07:11 13:12:24 50° 249° (WSW) 13:17:36 437.095 MHz 1200 baud AX-25 AFSK
Oscar 16 22 Jul 13:16:14 13:20:16 24° 69° (ENE) 13:24:18 437.025 USB, Beacon 2401.1428
ITAMSAT 1 22 Jul 13:24:10 13:26:04 12° 63° (ENE) 13:27:58 435.822 SSB
AO-27 22 Jul 13:39:37 13:43:06 18° 66° (ENE) 13:46:35 436.795 MHz FM
PCSat 22 Jul 13:42:21 13:46:23 22° 254° (WSW) 13:50:24 145.825 MHz
Uribyol 2 22 Jul 13:43:24 13:47:12 21° 67° (ENE) 13:50:59 436.500 FM
PANSAT 22 Jul 13:44:56 13:46:41 13° 203° (SSW) 13:48:25 not established
JAS-1B 22 Jul 13:46:27 13:52:24 21° 57° (ENE) 13:58:50 435.800 - 435.900 CW/SSB
AO-Echo 22 Jul 14:02:34 14:07:07 31° 70° (ENE) 14:11:44 ?
Oscar 19 22 Jul 14:27:08 14:32:12 66° 258° (WSW) 14:37:18 437.125 CW, 437.150 USB
TMSAT-1 22 Jul 14:40:30 14:44:13 20° 67° (ENE) 14:47:56 436.925 FM
SO-50 22 Jul 14:43:59 14:48:25 83° 299° (WNW) 14:52:57 436.795 FM
Oscar 16 22 Jul 14:54:51 14:59:24 32° 262° (W) 15:03:58 437.025 USB, Beacon 2401.1428
RS-15 22 Jul 14:55:35 15:06:48 76° 114° (ESE) 15:17:42 29.354 - 29.394 USB, Beacon 29.352 USB
Gurwin Techsat 1B 22 Jul 14:58:38 15:03:36 42° 72° (ENE) 15:08:34 435.225 FM
ITAMSAT 1 22 Jul 14:59:42 15:04:54 71° 258° (WSW) 15:10:07 435.822 SSB
AO-7 22 Jul 15:12:33 15:17:52 19° 56° (ENE) 15:23:10 29.400 - 29.500 MHz
AO-27 22 Jul 15:17:13 15:22:13 46° 260° (W) 15:27:14 436.795 MHz FM
Uribyol 2 22 Jul 15:21:30 15:26:21 39° 261° (W) 15:31:13 436.500 FM
KITSAT 1 22 Jul 15:22:32 15:24:56 11° 37° (NE) 15:27:18 435.175 FM
JAS-1B 22 Jul 15:33:28 15:41:31 82° 257° (WSW) 15:51:02 435.800 - 435.900 CW/SSB
AO-Echo 22 Jul 15:41:27 15:45:47 27° 264° (W) 15:50:13 ?
UOSAT-12 22 Jul 15:45:51 15:49:37 26° 111° (ESE) 15:53:27 437.025 FM, 437.400 FM
Uosat F 22 Jul 15:54:04 15:57:55 22° 68° (ENE) 16:01:47 435.120 FM
TMSAT-1 22 Jul 16:18:45 16:23:46 43° 261° (W) 16:28:48 436.925 FM
OPAL 22 Jul 16:24:01 16:27:44 20° 97° (E) 16:31:27 ?
Gurwin Techsat 1B 22 Jul 16:39:57 16:43:40 19° 266° (W) 16:47:25 435.225 FM
AO-7 22 Jul 17:01:14 17:09:36 85° 253° (WSW) 17:18:01 29.400 - 29.500 MHz
RS-15 22 Jul 17:10:57 17:20:08 29° 316° (NW) 17:29:15 29.354 - 29.394 USB, Beacon 29.352 USB
KITSAT 1 22 Jul 17:14:24 17:22:18 55° 59° (ENE) 17:30:07 435.175 FM
UOSAT-12 22 Jul 17:25:42 17:29:38 28° 306° (NW) 17:33:39 437.025 FM, 437.400 FM
JAS-1B 22 Jul 17:29:46 17:33:28 13° 275° (W) 17:37:23 435.800 - 435.900 CW/SSB
Uosat F 22 Jul 17:31:54 17:36:27 34° 262° (W) 17:41:02 435.120 FM
OPAL 22 Jul 18:02:01 18:06:39 38° 290° (WNW) 18:11:19 ?
Hamsat 22 Jul 18:10:40 18:14:29 36° 73° (ENE) 18:18:19 145.90 MHz
JAS-2 22 Jul 18:18:01 18:25:27 48° 71° (ENE) 18:32:43 435.800 - 435.900 CW/SSB, 435.910 FM
Saudisat 1A 22 Jul 18:27:16 18:30:57 25° 54° (NE) 18:34:37 436.775 MHz
SO-67 22 Jul 18:48:18 18:48:33 10° 69° (ENE) 18:48:47 435.3500 MHz FM
AO-7 22 Jul 18:59:52 19:03:16 13° 268° (W) 19:06:40 29.400 - 29.500 MHz
KITSAT 1 22 Jul 19:10:40 19:17:10 28° 255° (WSW) 19:23:40 435.175 FM
Oscar 10/S400 22 Jul 19:33:03 19:50:37 34° 145° (SE) 20:12:48 145.825 - 145.975 CW/USB, Beacon 145.810 USB
Hamsat 22 Jul 19:48:24 19:50:33 14° 267° (W) 19:52:42 145.90 MHz
HO-68 22 Jul 19:49:33 19:51:53 12° 56° (ENE) 19:54:13 435.675 MHz FM
JAS-2 22 Jul 20:03:41 20:10:26 32° 264° (W) 20:17:10 435.800 - 435.900 CW/SSB, 435.910 FM
Saudisat 1A 22 Jul 20:06:48 20:10:26 26° 249° (WSW) 20:14:03 436.775 MHz
STRAND 1 22 Jul 20:13:16 20:18:23 82° 284° (WNW) 20:23:28 ?
SO-67 22 Jul 20:18:05 20:21:15 33° 262° (W) 20:24:25 435.3500 MHz FM
HO-68 22 Jul 21:31:15 21:38:24 77° 73° (ENE) 21:45:34 435.675 MHz FM
RS-15 22 Jul 21:51:35 21:57:48 16° 30° (NNE) 22:04:04 29.354 - 29.394 USB, Beacon 29.352 USB
Oscar 11 22 Jul 22:21:57 22:26:15 82° 77° (ENE) 22:30:34 145.825 FM, Beacon 2401.500 USB
MaSat-1 22 Jul 22:24:10 22:26:54 20° 101° (ESE) 22:29:57 437.345 MHz
FUNcube-1 22 Jul 22:24:33 22:28:21 28° 72° (ENE) 22:32:04 145.950 - 145.970 MHz USB
SO-50 22 Jul 23:19:50 23:23:59 29° 55° (NE) 23:28:10 436.795 FM
HO-68 22 Jul 23:22:42 23:26:38 15° 267° (W) 23:30:35 435.675 MHz FM
Lituanica SAT-1 22 Jul 23:56:37 23:58:19 20° 131° (SE) 00:00:03 437.275 MHz beacon
MaSat-1 23 Jul 00:00:58 00:04:02 23° 302° (WNW) 00:07:32 437.345 MHz
FUNcube-1 23 Jul 00:01:28 00:04:42 20° 264° (W) 00:07:54 145.950 - 145.970 MHz USB
RS-15 23 Jul 00:02:15 00:13:09 59° 57° (ENE) 00:24:26 29.354 - 29.394 USB, Beacon 29.352 USB
SO-50 23 Jul 01:00:26 01:04:26 27° 249° (WSW) 01:08:28 436.795 FM
Lituanica SAT-1 23 Jul 01:30:23 01:31:17 12° 325° (NW) 01:32:10 437.275 MHz beacon
Oscar 16 23 Jul 01:34:02 01:35:35 11° 92° (E) 01:37:07 437.025 USB, Beacon 2401.1428
UOSAT-12 23 Jul 01:58:28 02:03:13 80° 61° (ENE) 02:07:51 437.025 FM, 437.400 FM
Sapphire 23 Jul 02:01:40 02:06:38 39° 109° (ESE) 02:11:37 437.095 MHz 1200 baud AX-25 AFSK
ISS 23 Jul 02:07:44 02:11:03 72° 316° (NW) 02:14:24 145.800 FM
RS-15 23 Jul 02:15:22 02:24:54 35° 254° (WSW) 02:34:49 29.354 - 29.394 USB, Beacon 29.352 USB
AO-Echo 23 Jul 02:16:01 02:18:22 13° 92° (E) 02:20:40 ?
PCSat 23 Jul 02:35:16 02:40:40 89° 115° (ESE) 02:46:07 145.825 MHz
Oscar 19 23 Jul 02:42:58 02:48:06 63° 101° (ESE) 02:53:12 437.125 CW, 437.150 USB
Oscar 16 23 Jul 03:10:11 03:15:17 66° 285° (WNW) 03:20:23 437.025 USB, Beacon 2401.1428
ITAMSAT 1 23 Jul 03:17:00 03:22:08 60° 101° (E) 03:27:12 435.822 SSB
Gurwin Techsat 1B 23 Jul 03:19:41 03:23:54 24° 96° (E) 03:28:06 435.225 FM
JAS-1B 23 Jul 03:25:11 03:34:12 46° 97° (E) 03:41:59 435.800 - 435.900 CW/SSB
AO-27 23 Jul 03:34:21 03:39:34 89° 284° (WNW) 03:44:44 436.795 MHz FM
OPAL 23 Jul 03:35:14 03:39:04 23° 66° (ENE) 03:42:54 ?
Uribyol 2 23 Jul 03:38:11 03:43:21 78° 284° (WNW) 03:48:29 436.500 FM
Sapphire 23 Jul 03:45:48 03:50:07 24° 305° (NW) 03:54:29 437.095 MHz 1200 baud AX-25 AFSK
AO-Echo 23 Jul 03:52:27 03:57:28 55° 286° (WNW) 04:02:17 ?
PCSat 23 Jul 04:22:54 04:24:48 12° 312° (NW) 04:26:42 145.825 MHz
Oscar 19 23 Jul 04:24:31 04:26:51 13° 295° (WNW) 04:29:12 437.125 CW, 437.150 USB
TMSAT-1 23 Jul 04:38:38 04:43:55 76° 284° (WNW) 04:49:11 436.925 FM
ITAMSAT 1 23 Jul 04:58:29 05:01:03 14° 296° (WNW) 05:03:37 435.822 SSB
Gurwin Techsat 1B 23 Jul 04:59:07 05:03:51 34° 289° (WNW) 05:08:35 435.225 FM
AO-7 23 Jul 05:08:02 05:15:52 44° 101° (E) 05:23:37 29.400 - 29.500 MHz
OPAL 23 Jul 05:13:19 05:17:44 32° 260° (W) 05:22:10 ?
JAS-1B 23 Jul 05:15:48 05:24:20 38° 296° (WNW) 05:31:55 435.800 - 435.900 CW/SSB
Uosat F 23 Jul 05:43:22 05:48:24 79° 284° (WNW) 05:53:23 435.120 FM
PANSAT 23 Jul 06:41:55 06:42:40 10° 156° (SSE) 06:43:25 not established
